Regional Weather Roundup
Issued by NWS

Home | Current Version | Previous Version | Text Only | Print | Product List | Glossary On
Versions: 1 2 3 4 5 6 7 8 9 10 11 12 13 14 15 16 17 18 19 20 21 22 23 24 25 26 27 28 29 30 31 32 33 34 35 36 37 38 39 40 41 42 43 44 45 46 47 48 49 50
000
ASUS43 KDTX 310801
RWRMI
MICHIGAN HOURLY REGIONAL WEATHER ROUNDUP
NATIONAL WEATHER SERVICE DETROIT/PONTIAC MI
400 AM EDT FRI OCT 31 2014

NOTE: "FAIR" INDICATES FEW OR NO CLOUDS BELOW 12,000 FEET WITH NO
SIGNIFICANT WEATHER AND/OR OBSTRUCTION TO VISIBILITY.

MIZ047>049-052>055-059>063-066>070-074>076-081>083-310900-
SOUTHEAST LOWER MICHIGAN

CITY           SKY/WX    TMP DP  RH WIND       PRES   REMARKS
ADRIAN         CLOUDY    43  36  76 W5        29.97F
ALMA           LGT RAIN  43  39  85 S6        29.91F
ANN ARBOR      CLOUDY    43  35  73 SW7       29.95F
BAD AXE        CLOUDY    42  40  92 SW5       29.91F
CARO           RAIN      42  39  90 CALM      29.91F
DETROIT CITY   CLOUDY    48  35  60 SW8       29.95F
DETROIT        CLOUDY    45  35  68 SW9       29.96F
FLINT          CLOUDY    45  37  73 SW7       29.94F
GROSSE ILE     CLOUDY    46  37  71 SW5       29.95F
HILLSDALE      DRIZZLE   43  38  82 S5        29.95F
HOWELL         CLOUDY    42  36  78 S3        29.93F

CITY           SKY/WX    TMP DP  RH WIND       PRES   REMARKS
JACKSON        CLOUDY    43  36  76 SW6       29.94F
LAMBERTVILLE   CLOUDY    45  34  65 SW3       29.97F
LANSING        LGT RAIN  44  37  76 SW8       29.93F
LAPEER         CLOUDY    42  37  81 SW3       29.93F
MASON          CLOUDY    43  37  78 CALM      29.93F
MONROE         CLOUDY    45  37  76 SW6       29.95F
MT. CLEMENS    CLOUDY    46  37  73 SW7       29.92F
PONTIAC        CLOUDY    44  36  73 SW6       29.93F
PORT HOPE        N/A     43  39  86 SW5       29.89F
PORT HURON     CLOUDY    43  39  87 S5        29.94F
TRI CITIES     LGT RAIN  44  39  82 SW6       29.91F
TROY           CLOUDY    46  35  63 SW5       29.96F
SAGINAW HB     LGT RAIN  43  39  87 SW6       29.91F
$$
MIZ043>046-050>051-056>058-064>065-071>073-077>080-310900-
SOUTHWEST LOWER MICHIGAN

CITY           SKY/WX    TMP DP  RH WIND       PRES   REMARKS
BATTLE CREEK   CLOUDY    45  37  73 SW8       29.94F
BENTON HARBOR  LGT RAIN  47  40  76 NW8G22    29.97S
COLDWATER      LGT RAIN  44  38  79 SW6       29.95F
FREMONT        DRIZZLE   41  38  91 NW9       29.94S
HOLLAND        LGT RAIN  46  40  79 NW8       29.96S
GRAND RAPIDS   LGT RAIN  45  41  86 W8        29.93S
IONIA          RAIN      44  39  83 W8        29.91F
KALAMAZOO      CLOUDY    45  38  76 SW6       29.94F
LUDINGTON      DRIZZLE   41  37  85 NW15      29.95S
MARSHALL       CLOUDY    43  36  76 SW6       29.94S
MOUNT PLEASANT LGT RAIN  42  40  93 SW5       29.91S
MUSKEGON       LGT RAIN  44  37  76 NW8       29.95F
SOUTH HAVEN    DRIZZLE   46  41  82 NW12G24   29.96S
$$
MIZ016>042-310900-
NORTHERN LOWER MICHIGAN

CITY           SKY/WX    TMP DP  RH WIND       PRES   REMARKS
ALPENA         LGT RAIN  40  39  97 W3        29.89S
BEAVER ISLAND  LGT RAIN  39  37  92 N10G18    29.94R WCI  32
BELLAIRE       LGT SNOW  41  39  92 CALM      29.90F
CADILLAC       RAIN      38  37  94 NW7       29.89F WCI  33
CHARLEVOIX     LGT RAIN  40  38  91 N16       29.93R WCI  32
FRANKFORT      RAIN      41  38  89 NW10G18   29.93S
GAYLORD        LGT RAIN  38  36  92 CALM      29.88S
GRAYLING       MIX PCPN  38  37  98 W3        29.89S
HARBOR SPRINGS LGT RAIN  38  36  91 N8        29.90R WCI  33
HOUGHTON LAKE  LGT RAIN  39  36  89 NW7       29.89S WCI  34
MANISTEE       CLOUDY    43  36  75 NW15      29.94S
OSCODA         DRIZZLE   41  40  97 SW5       29.89S
PELLSTON       LGT RAIN  39  37  92 N10       29.91R WCI  32
ROGERS CITY    CLOUDY    39  39 100 CALM      29.90S
TRAVERSE CITY  LGT RAIN  41  37  86 W6        29.90S
$$
MIZ007>008-015-310900-
EASTERN UPPER MICHIGAN

CITY           SKY/WX    TMP DP  RH WIND       PRES   REMARKS
KINROSS        CLOUDY    34  34 100 N16G24    29.95R WCI  23
MACKINAC ISLAN MIX PCPN  36  36  99 N17G25    29.92R WCI  26
NEWBERRY       CLOUDY    33  32  96 N16G24    29.98R WCI  23
S. S. MARIE    FLURRIES  34  31  88 NE7G18    29.96R WCI  28
MUNISING         N/A     38  34  85 N29G39    30.08R WCI  26
$$
MIZ004>006-011>014-085-310900-
CENTRAL UPPER MICHIGAN

CITY           SKY/WX    TMP DP  RH WIND       PRES   REMARKS
MANISTIQUE     LGT RAIN  36  34  94 N16G26    29.99R WCI  26
ESCANABA       CLOUDY    34  30  86 N17G24    30.03R WCI  23
MENOMINEE      CLOUDY    37  27  65 N22G29    30.03R WCI  27
$$
MIZ001>003-009>011-084-310900-
WESTERN UPPER MICHIGAN

CITY           SKY/WX    TMP DP  RH WIND       PRES   REMARKS
IRON MOUNTAIN  CLOUDY    34  27  75 N18G26    30.09R WCI  23
HOUGHTON       FLURRIES  30  22  72 N20G31    30.23R WCI  17
COPPER HARBOR    N/A     36  27  69 E32G43    30.24R WCI  23
IRONWOOD       CLOUDY    30  25  80 N16G23    30.28R WCI  19
$$

ABBREVIATIONS USED IN REMARKS
   TC - TEMPERATURE IN CELSIUS
  WCI - WIND CHILL INDEX
   HX - HEAT INDEX
  VSB - VISIBILITY




USA.gov is the U.S. government's official web portal to all federal, state and local government web resources and services.